Find Starlink 1718

NORAD ID: 46674 Int'l Des: 2020-073 Owner: SPXS Country: US Constellation: starlink operational
LEOCIRCULAR

Current View

Loading 3D Globe...

About Starlink 1718

Starlink 1718 (NORAD 46674) is a starlink constellation satellite (v1.0) launched Oct 18, 2020 by SPXS of US. It operates in LEO, CIRCULAR orbit with a mass of 260.00 kg.

About Starlink 1718

Description loading...

Upcoming Passes

Passes for default location (London). Set your location on the main map for personalized predictions.

Altitude History

Loading altitude history...

Two-Line Element Set

1 46674U 20073E 26166.61358629 .00106666 00000-0 62925-3 0 9992
2 46674 53.0415 106.8438 0002058 159.2108 200.8995 15.77372468312669
Epoch: Jun 15, 2026 • Age: 6 hours

Current Status

Altitude 356.7 km
Velocity 7.69 km/s
Sub-Earth Point -53.14°S, 168.54°E
Launch Date Oct 18, 2020
Age 5.6 years
Type internet

Technical Details

Classification Payload
Mass 260.00 kg
Dry Mass 248.00 kg
Total Mass 260.00 kg
Length 0.20 m
Diameter 2.80 m
Span 9.00 m
Shape Box + pan
Manufacturer SPXS
Bus Type Starlink
Phase Status In Orbit
Owner/State SPXS/US

Most Searched